(202235) = 2004 YC29

Discovered at Kitt Peak on 2004-12-16 by Spacewatch.

Orbit

Orbit type: Main Belt

Note: WebGL enabled browser required.

epoch2024-03-31.0
epoch JD2460400.5
perihelion date2023-08-12.95079
perihelion JD2460169.45079
argument of perihelion (°)344.89029
ascending node (°)163.01042
inclination (°)2.11129
eccentricity0.1513710
perihelion distance (AU)2.0082599
Tisserand w.r.t. Jupiter3.5
ΔV w.r.t. Earth (km/sec)8.8
semimajor axis (AU)2.3664756
mean anomaly (°)62.55403
mean daily motion (°/day)0.27073900
aphelion distance (AU)2.725
period (years)3.64
P-vector [x]-0.84718021
P-vector [y]0.49120369
P-vector [z]0.20249600
Q-vector [x]-0.53119659
Q-vector [y]-0.79079787
Q-vector [z]-0.30408702
absolute magnitude17.15
phase slope0.15
uncertainty0
referenceMPEC 2024-C145
observations used413
oppositions15
arc length (days)9477
first opposition used1998
last opposition used2024
residual rms (arc-secs)0.72
perturbers coarse indicatorM-v
perturbers precise indicator003Ek
first observation date used1998-03-03.0
last observation date used2024-02-12.0
computer nameMPCLINUX
JD of orbit computation2456909.124627
perihelion JD uncertainty (days)9.1336E-05
argument of perihelion uncertainty (°)1.2493E-04
ascending node uncertainty (°)1.2283E-04
inclination uncertainty (°)5.0721E-06
eccentricity uncertainty 4.6541E-08
perihelion distance uncertainty (AU)1.0497E-07
Minimum Orbit Intersection Distances (in AU)
for orbit epoch: 2460200.5, reference: E2024-CE5
Mercury1.64859
Venus1.29204
Earth1.0185
Mars0.35054
Jupiter2.27665
Saturn6.77199
Uranus16.416
Neptune27.2304

Observations

420 total observations over interval: 1998 03 03.17374 – 2024 02 12.648189
These data are available for download (format description).

Date (UT) J2000 RA J2000 Dec Magn Location Ref
1998 03 03.17374 09 40 13.32 +13 08 50.7 19.3   704 – Lincoln Laboratory ETS, New Mexico MPS 139346
1998 03 03.19428 09 40 12.56 +13 08 59.9 19.2   704 – Lincoln Laboratory ETS, New Mexico MPS 139346
1998 03 03.21461 09 40 11.64 +13 09 04.7 19.2   704 – Lincoln Laboratory ETS, New Mexico MPS 139346
1998 03 03.23492 09 40 10.58 +13 09 14.0 19.6   704 – Lincoln Laboratory ETS, New Mexico MPS 139346
1998 03 04.15616 09 39 31.66 +13 14 08.6 19.4   704 – Lincoln Laboratory ETS, New Mexico MPS 139346
1998 03 04.19682 09 39 29.93 +13 14 21.1 19.6   704 – Lincoln Laboratory ETS, New Mexico MPS 139346
1998 03 04.21711 09 39 29.01 +13 14 28.8 19.6   704 – Lincoln Laboratory ETS, New Mexico MPS 139346
1998 03 04.23726 09 39 27.80 +13 14 35.7 20.0   704 – Lincoln Laboratory ETS, New Mexico MPS 139346
2002 02 20.47720 14 43 28.17 -14 12 39.5 21.9 V 691 – Steward Observatory, Kitt Peak-Spacewatch MPS 139346
2002 02 20.49906 14 43 29.16 -14 12 42.1 21.3 V 691 – Steward Observatory, Kitt Peak-Spacewatch MPS 139346
2002 02 20.52113 14 43 30.12 -14 12 44.9 21.3 V 691 – Steward Observatory, Kitt Peak-Spacewatch MPS 139346
2002 04 14.47561 14 40 20.64 -12 30 06.4 19.6   644 – Palomar Mountain/NEAT MPS 139346
2002 04 14.48599 14 40 20.14 -12 30 03.3 19.9   644 – Palomar Mountain/NEAT MPS 139346
2002 04 14.49638 14 40 19.59 -12 29 59.7 19.1   644 – Palomar Mountain/NEAT MPS 139346
2003 08 31.34110 22 07 55.84 -10 52 36.3 21.3 g 568 – Maunakea MPS 252436
2003 08 31.37544 22 07 53.90 -10 52 48.3 21.3 g 568 – Maunakea MPS 252436
2003 08 31.40179 22 07 52.42 -10 52 57.5 21.3 g 568 – Maunakea MPS 252436
2004 11 20.49453 06 30 04.57 +19 48 10.7 20.7 V 291 – LPL/Spacewatch II MPS 123385
2004 11 20.50447 06 30 04.37 +19 48 10.1 20.6 V 291 – LPL/Spacewatch II MPS 123385
2004 11 20.52165 06 30 04.02 +19 48 09.5 21.0 V 291 – LPL/Spacewatch II MPS 123385
2004 12 08.33429 06 18 51.18 +19 40 06.0 19.8   704 – Lincoln Laboratory ETS, New Mexico MPS 123385
2004 12 08.35084 06 18 50.30 +19 40 07.1 20.2   704 – Lincoln Laboratory ETS, New Mexico MPS 123385
2004 12 08.38102 06 18 48.66 +19 40 07.8 20.0   704 – Lincoln Laboratory ETS, New Mexico MPS 123385
2004 12 16.28695 06 11 01.23 +19 40 42.3 19.4 V 691 – Steward Observatory, Kitt Peak-Spacewatch MPS 122897
2004 12 16.31421 06 10 59.45 +19 40 44.2 19.6 V 691 – Steward Observatory, Kitt Peak-Spacewatch MPS 122897
2004 12 16.32934 06 10 58.37 +19 40 43.7 19.2   704 – Lincoln Laboratory ETS, New Mexico MPS 123385
2004 12 16.34006 06 10 57.73 +19 40 44.5 19.6 V 691 – Steward Observatory, Kitt Peak-Spacewatch MPS 122897
2004 12 16.34234 06 10 57.51 +19 40 44.6 19.6   704 – Lincoln Laboratory ETS, New Mexico MPS 123385
2004 12 16.35537 06 10 56.69 +19 40 44.1 19.7   704 – Lincoln Laboratory ETS, New Mexico MPS 123385
2004 12 16.36839 06 10 55.78 +19 40 44.8 19.5   704 – Lincoln Laboratory ETS, New Mexico MPS 123385
2004 12 16.38144 06 10 54.93 +19 40 45.6 19.8   704 – Lincoln Laboratory ETS, New Mexico MPS 123385
2004 12 21.25969 06 05 38.89 +19 42 13.0 19.4 V 691 – Steward Observatory, Kitt Peak-Spacewatch MPS 122897
2004 12 21.28632 06 05 37.02 +19 42 14.0 20.6 V 691 – Steward Observatory, Kitt Peak-Spacewatch MPS 122897
2004 12 21.31182 06 05 35.31 +19 42 14.3 19.4 V 691 – Steward Observatory, Kitt Peak-Spacewatch MPS 122897
2007 09 10.38167 00 42 06.69 +03 21 39.3 20.6 V G96 – Mt. Lemmon Survey MPS 215131
2007 09 10.38980 00 42 06.33 +03 21 36.0 20.7 V G96 – Mt. Lemmon Survey MPS 215131
2007 09 10.39791 00 42 05.97 +03 21 34.0 20.8 V G96 – Mt. Lemmon Survey MPS 215131
2007 09 10.40589 00 42 05.61 +03 21 31.2 20.8 V G96 – Mt. Lemmon Survey MPS 215131
2007 09 12.35350 00 40 41.33 +03 10 38.5 20.1 V 691 – Steward Observatory, Kitt Peak-Spacewatch MPS 215131
2007 09 12.37798 00 40 40.21 +03 10 30.6 20.5 V 691 – Steward Observatory, Kitt Peak-Spacewatch MPS 215131
2007 09 12.40000 00 40 39.19 +03 10 23.1 20.7 V 691 – Steward Observatory, Kitt Peak-Spacewatch MPS 215131
2007 09 14.26263 00 39 14.90 +02 59 34.6 20.8 V G96 – Mt. Lemmon Survey MPS 216214
2007 09 14.26871 00 39 14.58 +02 59 32.6 20.9 V G96 – Mt. Lemmon Survey MPS 216214
2007 09 14.27475 00 39 14.32 +02 59 31.0 21.3 V G96 – Mt. Lemmon Survey MPS 216214
2007 09 14.28069 00 39 14.00 +02 59 28.4 20.9 V G96 – Mt. Lemmon Survey MPS 216214
2007 10 08.26765 00 18 06.91 +00 23 37.2 20.5 V G96 – Mt. Lemmon Survey MPS 218651
2007 10 08.27449 00 18 06.51 +00 23 34.4 20.5 V G96 – Mt. Lemmon Survey MPS 218651
2007 10 08.28121 00 18 06.15 +00 23 32.1 20.6 V G96 – Mt. Lemmon Survey MPS 218651
2007 10 08.28791 00 18 05.79 +00 23 29.3 21.1 V G96 – Mt. Lemmon Survey MPS 218651
2008 11 23.49060 10 30 57.45 +07 52 53.2 21.2 V G96 – Mt. Lemmon Survey MPS 266447
2008 11 23.49562 10 30 57.88 +07 52 50.6 21.4 V G96 – Mt. Lemmon Survey MPS 266447
2008 11 23.50059 10 30 58.32 +07 52 48.0 21.2 V G96 – Mt. Lemmon Survey MPS 266447
2008 11 23.50559 10 30 58.78 +07 52 45.2 20.9 V G96 – Mt. Lemmon Survey MPS 266447
2008 12 07.47477 10 50 40.60 +05 58 39.8   691 – Steward Observatory, Kitt Peak-Spacewatch MPS 268805
2008 12 07.48739 10 50 41.58 +05 58 34.1   691 – Steward Observatory, Kitt Peak-Spacewatch MPS 268805
2008 12 07.50001 10 50 42.54 +05 58 28.0   691 – Steward Observatory, Kitt Peak-Spacewatch MPS 268805
2008 12 22.47176 11 08 07.44 +04 16 49.5   291 – LPL/Spacewatch II MPS 269980
2008 12 22.47552 11 08 07.63 +04 16 48.3   291 – LPL/Spacewatch II MPS 269980
2008 12 22.47927 11 08 07.86 +04 16 46.9   291 – LPL/Spacewatch II MPS 269980
2008 12 22.48316 11 08 08.08 +04 16 45.4   291 – LPL/Spacewatch II MPS 269980
2008 12 22.48691 11 08 08.29 +04 16 44.2   291 – LPL/Spacewatch II MPS 269980
2008 12 22.49083 11 08 08.53 +04 16 42.9   291 – LPL/Spacewatch II MPS 269980
2008 12 22.49703 11 08 08.89 +04 16 40.7   291 – LPL/Spacewatch II MPS 269980
2008 12 22.50079 11 08 09.11 +04 16 39.3   291 – LPL/Spacewatch II MPS 269980
2008 12 22.50469 11 08 09.34 +04 16 38.0   291 – LPL/Spacewatch II MPS 269980
2009 02 13.31557 11 22 11.59 +03 40 19.0 19.5 V 691 – Steward Observatory, Kitt Peak-Spacewatch MPS 276421
2009 02 13.33364 11 22 10.91 +03 40 24.5 19.4 V 691 – Steward Observatory, Kitt Peak-Spacewatch MPS 276421
2009 02 13.35195 11 22 10.26 +03 40 30.4 19.4 V 691 – Steward Observatory, Kitt Peak-Spacewatch MPS 276421
2009 02 17.24391 11 19 48.40 +04 01 48.5   691 – Steward Observatory, Kitt Peak-Spacewatch MPS 277473
2009 02 17.26200 11 19 47.64 +04 01 55.0   691 – Steward Observatory, Kitt Peak-Spacewatch MPS 277473
2009 02 17.28033 11 19 46.88 +04 02 01.3   691 – Steward Observatory, Kitt Peak-Spacewatch MPS 277473
2009 02 18.32887 11 19 04.58 +04 08 12.3 19.1   704 – Lincoln Laboratory ETS, New Mexico MPS 284184
2009 02 18.34057 11 19 04.04 +04 08 17.3 19.5   704 – Lincoln Laboratory ETS, New Mexico MPS 284184
2009 02 18.36418 11 19 03.00 +04 08 26.2 19.5   704 – Lincoln Laboratory ETS, New Mexico MPS 284184
2009 02 18.38009 11 19 02.26 +04 08 31.0 20.0   704 – Lincoln Laboratory ETS, New Mexico MPS 284184
2009 02 19.05549 11 18 34.34 +04 12 36.7 18.7 V J75 – OAM Observatory, La Sagra MPS 279973
2009 02 19.06902 11 18 33.72 +04 12 40.6 19.1 V J75 – OAM Observatory, La Sagra MPS 279973
2009 02 19.08247 11 18 33.12 +04 12 45.2 18.7 V J75 – OAM Observatory, La Sagra MPS 279973
2009 02 23.32691 11 15 24.31 +04 39 53.5 18.9   704 – Lincoln Laboratory ETS, New Mexico MPS 278492
2009 02 23.34295 11 15 23.52 +04 40 00.8 19.2   704 – Lincoln Laboratory ETS, New Mexico MPS 278492
2009 02 23.35561 11 15 22.91 +04 40 05.6 19.4   704 – Lincoln Laboratory ETS, New Mexico MPS 278492
2009 02 23.36751 11 15 22.32 +04 40 10.6 19.0   704 – Lincoln Laboratory ETS, New Mexico MPS 278492
2009 02 23.37899 11 15 21.74 +04 40 14.9 19.1   704 – Lincoln Laboratory ETS, New Mexico MPS 278492
2009 03 02.28134 11 09 40.05 +05 28 08.4 18.9   704 – Lincoln Laboratory ETS, New Mexico MPS 279534
2009 03 02.29299 11 09 39.38 +05 28 14.3 19.2   704 – Lincoln Laboratory ETS, New Mexico MPS 279534
2009 03 02.30539 11 09 38.71 +05 28 19.4 19.0   704 – Lincoln Laboratory ETS, New Mexico MPS 279534
2009 03 02.31713 11 09 38.05 +05 28 24.7 18.9   704 – Lincoln Laboratory ETS, New Mexico MPS 279534
